This demonstration page uses our WeatherBlox Daily Observations layout. Learn more.

Left ArrowRight Arrow

Hourly Observations for November 8, 2015

Temp ( °F °C ) Dew Point ( °F °C ) Humidity (%) Winds ( mph kmh ) Pressure ( in mb ) Visibility ( mi km ) Precip ( " mm )
12:53 am 00:53 Cloudy with Light Rain 55 12.8 51 10.6 87 87 N 5 7 30.16 1021 10 16 0.01 0.25
1:53 am 01:53 Cloudy with Light Rain 54 12.2 51 10.6 90 90 Calm 30.18 1022 10 16 0.01 0.25
2:53 am 02:53 Cloudy 54 12.2 51 10.6 90 90 N 3 6 30.16 1021 10 16 0.00 0.03
3:53 am 03:53 Cloudy with Light Rain 54 12.2 50 10 87 87 NNE 3 6 30.18 1022 10 16 0.02 0.51
4:39 am 04:39 Mostly Cloudy with Light Rain 54 12.2 51 10.6 90 90 NNE 5 7 30.21 1023 10 16 0.03 0.76
4:48 am 04:48 Cloudy with Light Rain 54 12 52 11 94 94 NE 3 6 30.21 1023 9 14 0.00 0.00
4:53 am 04:53 Cloudy with Rain 54 12.2 52 11.1 93 93 ENE 5 7 30.17 1022 7 11 0.04 1.02
5:06 am 05:06 Cloudy with Light Rain 54 12 52 11 94 94 ENE 5 7 30.21 1023 6 10 0.00 0.00
5:13 am 05:13 Cloudy with Rain 54 12.2 52 11.1 93 93 ENE 5 7 30.21 1023 6 10 0.04 1.02
5:46 am 05:46 Cloudy with Rain 55 13 50 10 82 82 E 12 19 30.21 1023 8 13 0.00 0.00
5:53 am 05:53 Cloudy with Rain 55 12.8 50 10 83 83 ENE 12 19 30.20 1023 9 14 0.11 2.79
6:53 am 06:53 Cloudy with Light Rain 52 11.1 48 8.9 86 86 NE 9 15 30.24 1024 10 16 0.03 0.76
7:53 am 07:53 Cloudy with Light Rain 51 10.6 46 7.8 83 83 ENE 13 20 30.26 1025 10 16 0.03 0.76
8:53 am 08:53 Cloudy with Light Rain 51 10.6 46 7.8 83 83 NE 12 19 30.30 1026 10 16 0.01 0.25
9:53 am 09:53 Cloudy with Light Rain 51 10.6 45 7.2 80 80 E 14 22 30.28 1025 10 16 0.00 0.03
10:49 am 10:49 Cloudy 52 11 46 8 82 82 ENE 10 17 30.30 1026 10 16 0.01 0.25
10:53 am 10:53 Cloudy 52 11.1 47 8.3 83 83 ENE 13 20 30.29 1026 10 16 0.01 0.25
11:53 am 11:53 Cloudy with Light Rain 51 10.6 47 8.3 86 86 ENE 12 19 30.29 1026 8 13 0.01 0.25
12:53 pm 12:53 Cloudy with Rain 51 10.6 47 8.3 86 86 ENE 13 20 30.27 1025 5 8 0.06 1.52
1:53 pm 13:53 Cloudy with Light Rain 51 10.6 46 7.8 83 83 ENE 14 22 30.24 1024 10 16 0.03 0.76
2:03 pm 14:03 Cloudy with Light Rain 50 10 46 8 88 88 ENE 13 20 30.24 1024 10 16 0.00 0.00
2:26 pm 14:26 Cloudy with Light Rain 50 10 47 8.3 89 89 ENE 10 17 30.24 1024 10 16 0.00 0.03
2:53 pm 14:53 Cloudy with Light Rain 50 10 46 7.8 86 86 ENE 12 19 30.22 1024 10 16 0.02 0.51
3:42 pm 15:42 Cloudy with Light Rain 50 10 46 8 88 88 ENE 16 26 30.21 1023 9 14 0.00 0.00
3:53 pm 15:53 Cloudy with Light Rain 50 10 46 7.8 86 86 ENE 12 19 30.22 1023 8 13 0.02 0.51
4:51 pm 16:51 Cloudy with Light Rain 48 9 45 7 87 87 E 16 26 30.24 1024 6 10 0.06 1.52
4:53 pm 16:53 Cloudy with Light Rain 49 9.4 45 7.2 86 86 ENE 16 26 30.22 1023 6 10 0.07 1.78
5:53 pm 17:53 Cloudy with Light Rain 49 9.4 45 7.2 86 86 ENE 13 20 30.23 1024 9 14 0.04 1.02
6:53 pm 18:53 Cloudy with Light Rain 48 8.9 45 7.2 89 89 NE 14 22 30.24 1024 10 16 0.01 0.25
7:53 pm 19:53 Cloudy with Rain 48 8.9 44 6.7 86 86 ENE 20 31 30.24 1024 8 13 0.01 0.25
8:46 pm 20:46 Cloudy with Light Rain 46 8 43 6 87 87 ENE 16 26 30.24 1024 7 11 0.00 0.00
8:53 pm 20:53 Cloudy with Rain 47 8.3 43 6.1 86 86 ENE 17 28 30.23 1024 5 8 0.04 1.02
9:39 pm 21:39 Cloudy with Rain 47 8.3 44 6.7 90 90 ENE 15 24 30.24 1024 6 10 0.10 2.54
9:53 pm 21:53 Cloudy with Rain 47 8.3 44 6.7 90 90 ENE 15 24 30.25 1024 7 11 0.13 3.30
10:53 pm 22:53 Cloudy with Light Rain 47 8.3 44 6.7 90 90 ENE 12 19 30.23 1024 7 11 0.07 1.78
11:53 pm 23:53 Cloudy with Heavy Rain 47 8.3 44 6.7 90 90 NE 10 17 30.21 1023 6 10 0.30 7.62
11:55 pm 23:55 Cloudy with Heavy Rain 47 8.3 44 6.7 90 90 NE 10 17 30.21 1023 6 10 0.01 0.25

Powered by AerisWeather